Location: Unspecified
(0.0000°N, 0.0000°E)
Time: 11:06:35
(UTC+00:00)

Tiangong - Pass Details

Date: 08 February 2026
Orbit: 386 x 391 km, 41.5° (Epoch: 15 February)

Event Time Altitude Azimuth Distance (km) Brightness Sun altitude
Exits shadow 05:39:07 - 256° (WSW) 1,519 0.3 -8.5°
Reaches altitude 10° 05:39:39 10° 248° (WSW) 1,417 0.2 -8.3°
Maximum altitude 05:41:00 12° 223° (SW) 1,295 0.3 -8.0°
Drops below altitude 10° 05:42:23 10° 197° (SSW) 1,420 0.7 -7.7°
Sets 05:45:28 0° 165° (SSE) 2,278 2.2 -6.9°
